Location: Newark
(13.6797°N, 8.5297°E)
Time: 14:25:49
(UTC+00:00)

A-11 Canister half - Pass Details

Date: 21 January 2020
Orbit: 1517 x 1683 km, 47.2° (Epoch: 26 February)

Event Time Altitude Azimuth Distance (km) Brightness Sun altitude
Rises 23:44:48 0° 261° (W) 4,760 - -83.6°
Reaches altitude 10° 23:48:57 10° 276° (W) 3,747 - -83.2°
Maximum altitude 23:55:41 21° 323° (NW) 2,907 - -82.4°
Drops below altitude 10° 00:02:21 10° 10° (N) 3,682 - -81.4°
Sets 00:06:25 0° 25° (NNE) 4,655 - -80.7°
